RH
7 8 8 10 12 13 14 16 18 19 19 19 19 19 19 19 19 19 18 18 18 17 17 17 17 17 17 17 16 16 16 15 15 15 15 15 16 16 16 16 16 16 16 16 16 16 16 16 16 17 17 18 18 19 20 20 21 21 22 22 22 22 22 22 21 21 21 21 20 20 20 20 20 20 19 19 18 17 17 18 22 28 40 49 52 54
8 10 10 12 14 15 16 18 20 21 21 21 21 21 20 20 20 19 18 18 18 18 19 19 20 20 20 20 21 22 22 22 22 21 21 21 21 21 21 20 20 19 18 18 18 19 20 21 22 24 24 25 26 27 28 29 30 30 30 30 30 29 29 28 28 28 28 28 28 27 27 27 27 27 27 25 23 22 20 20 18 22 34 45 52 56
10 12 13 15 16 18 19 20 22 22 23 22 22 22 21 20 20 19 18 18 19 19 20 21 22 22 23 24 26 29 31 32 32 32 31 30 30 29 28 26 24 23 22 22 22 23 24 27 29 31 33 35 36 37 38 39 40 40 39 38 38 37 37 37 37 36 36 36 36 36 35 36 37 37 35 32 30 28 26 24 22 22 24 31 41 51
14 16 16 18 19 20 21 23 24 24 24 23 22 22 21 20 19 18 18 18 19 20 21 22 24 24 26 29 33 38 42 44 46 46 46 44 42 40 37 34 31 29 27 26 26 27 30 33 36 40 42 44 46 47 48 48 48 47 46 46 45 44 44 44 43 43 43 43 42 42 42 42 42 41 40 38 37 35 33 31 29 27 24 24 29 38
17 19 20 21 22 22 24 24 24 24 24 23 22 21 20 19 19 18 18 19 19 20 21 23 26 28 31 35 40 46 51 55 58 60 60 58 56 52 48 44 40 37 34 33 32 34 36 40 43 46 50 52 54 54 55 55 54 53 51 50 49 48 48 47 47 46 46 46 46 46 46 46 45 44 43 42 42 40 39 37 35 33 32 29 28 29
20 22 23 24 24 24 26 26 26 24 24 23 22 20 20 19 19 18 18 19 20 21 23 25 28 32 37 42 48 53 58 62 66 70 71 70 68 64 60 55 50 46 43 41 40 42 44 47 50 53 56 57 58 59 60 58 57 55 53 51 49 48 47 47 46 46 46 46 46 47 47 47 46 46 46 45 44 44 42 42 40 39 38 36 35 34
23 24 26 26 27 27 27 26 26 24 23 22 21 20 20 19 19 19 20 21 22 24 25 28 33 38 44 50 55 60 64 67 71 74 76 76 76 73 70 66 61 57 53 50 49 50 52 54 57 59 61 62 62 62 61 59 57 54 51 49 48 46 46 45 45 45 45 46 46 46 47 47 48 48 48 48 48 48 47 47 46 45 44 43 42 41
27 27 28 28 28 28 27 26 24 23 22 21 21 20 20 20 20 20 21 23 24 27 30 33 38 44 51 56 61 64 67 69 71 74 77 79 79 78 76 74 71 67 64 60 58 58 58 60 62 64 65 66 65 63 61 58 56 53 51 49 48 47 46 46 46 46 46 46 47 48 49 50 51 52 52 53 54 54 54 54 54 53 52 52 51 50
32 31 31 30 29 28 26 25 24 23 21 21 21 21 21 21 21 22 23 24 27 31 36 38 42 48 56 60 63 65 66 67 69 72 75 78 80 80 78 78 76 74 72 70 68 66 66 66 67 67 68 67 65 63 60 58 57 55 54 52 51 51 50 50 49 49 49 50 50 51 52 54 55 56 58 58 59 60 60 60 60 60 60 60 59 58
34 34 32 31 29 27 26 24 23 22 21 20 20 21 22 23 24 24 25 26 29 34 40 43 46 50 56 60 62 64 64 64 66 69 72 76 78 78 78 78 78 78 76 75 74 73 72 70 70 70 69 67 64 62 60 60 60 58 57 56 56 55 54 54 53 52 52 53 53 54 56 57 58 60 60 61 61 62 62 63 63 63 63 63 63 63
36 34 32 30 28 26 25 24 23 22 21 20 21 22 24 27 28 28 28 28 30 34 40 46 50 53 56 60 61 62 62 63 65 67 70 73 75 76 77 78 78 79 80 79 78 77 76 74 73 72 69 66 65 65 66 66 64 63 62 61 60 60 58 58 57 57 57 57 57 58 58 60 60 60 61 62 62 62 63 63 64 64 64 64 64 64
35 32 30 28 27 26 24 24 23 23 23 22 22 23 26 31 33 34 33 32 33 36 40 48 53 57 59 60 61 62 62 63 64 65 67 69 72 74 75 76 78 80 82 83 83 82 80 78 76 74 71 71 73 74 76 74 73 72 69 68 66 65 64 64 64 64 63 63 62 62 62 61 61 61 62 62 62 62 63 63 63 64 64 64 64 63
33 30 28 26 26 24 24 24 24 25 26 27 27 28 30 34 37 39 39 39 40 42 45 50 55 59 62 63 63 62 62 62 62 62 63 65 67 69 71 74 77 80 84 86 86 85 84 82 80 78 78 80 82 84 84 83 82 79 77 75 74 72 71 71 70 70 69 68 66 65 64 63 62 62 62 62 62 62 63 63 63 63 64 64 63 63
30 28 27 26 26 26 26 27 28 30 32 34 34 35 36 39 41 43 44 45 46 48 51 55 58 60 62 63 62 61 59 58 58 58 58 60 62 64 67 70 74 78 82 86 87 87 86 85 84 84 85 86 87 88 88 87 86 85 83 80 78 76 76 74 74 72 70 69 67 65 64 63 62 61 61 61 62 62 62 63 63 63 63 63 63 63
29 28 28 28 28 28 29 31 34 36 38 40 41 42 42 44 48 50 51 52 53 54 56 58 60 60 61 60 59 57 54 53 52 52 52 54 56 60 64 67 71 75 79 83 85 86 87 87 87 88 88 88 88 88 88 88 88 88 86 85 82 80 78 76 74 73 71 69 67 66 65 64 62 62 61 61 61 62 62 62 63 63 64 64 63 63
27 27 28 28 29 30 32 35 38 40 42 44 46 48 49 52 56 60 60 58 58 59 60 61 61 60 58 56 54 53 52 52 52 52 50 50 52 56 60 64 68 72 76 79 82 84 85 86 87 88 87 86 86 87 87 88 88 88 88 87 86 84 82 79 77 76 74 72 70 69 67 66 64 64 63 63 63 63 63 63 63 63 63 63 63 63
26 27 28 29 30 31 34 39 43 46 47 48 50 53 56 60 63 66 66 64 64 63 64 64 64 62 58 51 49 51 56 60 61 59 55 52 52 54 58 62 65 68 72 74 77 79 80 82 82 82 80 79 79 80 81 83 84 86 86 87 87 86 85 83 81 78 76 76 74 72 70 68 67 66 66 66 65 65 65 64 64 64 63 63 63 63
26 27 28 29 32 35 39 43 46 49 51 53 55 58 62 66 68 69 69 68 68 68 68 68 67 64 59 50 48 53 64 72 74 70 64 58 54 55 58 60 62 63 65 68 70 72 74 74 75 74 74 72 72 72 73 74 76 78 78 80 80 81 81 81 80 78 76 76 74 73 72 71 70 70 69 68 68 67 66 66 65 65 66 66 66 66
26 28 29 31 35 39 44 48 50 53 56 60 64 66 69 71 71 71 70 70 70 70 71 70 68 65 60 57 58 63 74 80 81 78 74 63 56 54 55 55 56 56 56 58 60 62 65 66 68 68 67 66 66 66 66 66 68 69 70 70 71 72 72 73 73 73 74 74 73 73 73 73 72 72 71 70 69 68 68 68 68 69 70 71 71 71
30 32 34 38 42 46 50 53 56 59 64 69 72 73 74 74 73 72 70 70 70 71 72 71 69 65 62 64 68 72 78 82 83 81 77 67 58 52 52 52 52 51 50 50 51 54 56 58 60 61 62 62 61 61 61 61 61 62 63 63 64 64 65 67 68 70 72 73 74 74 74 74 74 74 72 71 70 70 70 71 72 73 74 74 74 73
37 39 43 48 52 55 57 58 62 66 72 76 78 77 76 74 74 72 70 70 70 71 71 70 68 67 68 73 76 77 79 83 84 82 78 70 61 54 53 53 52 50 47 46 46 48 50 52 54 55 56 57 57 57 57 56 57 57 58 58 58 60 61 64 67 71 74 74 74 74 75 75 74 74 73 72 72 72 72 74 74 75 76 74 74 73
46 47 51 57 61 63 63 65 69 74 78 80 81 79 77 76 74 73 71 71 70 70 70 69 70 72 78 82 81 79 79 83 84 83 79 74 65 58 56 56 54 51 48 46 46 46 48 48 50 51 52 53 53 53 52 52 52 52 53 54 55 57 60 64 69 73 74 74 74 75 75 75 75 74 74 73 73 74 74 76 76 76 75 74 73 72
60 60 61 66 70 71 72 73 76 79 81 82 80 78 76 76 74 74 72 72 72 71 70 71 73 77 82 84 83 81 82 84 85 84 81 76 70 63 58 56 54 52 50 49 49 49 48 48 48 48 49 50 50 50 49 49 49 49 50 51 52 55 60 66 71 74 75 74 74 75 75 75 75 74 74 74 74 74 76 76 76 76 74 72 70 69
74 73 74 75 76 76 76 78 80 82 82 81 80 78 76 76 76 74 74 74 74 73 72 72 73 76 80 83 84 84 84 84 84 84 82 78 72 65 59 56 54 52 52 52 52 50 49 47 47 47 47 48 48 48 47 47 47 48 48 49 52 56 62 69 73 75 75 74 74 75 76 76 75 74 74 74 74 74 76 76 75 74 72 70 68 67
73 74 75 74 74 76 76 79 81 82 82 81 80 79 78 78 78 77 76 76 76 75 74 73 74 76 77 82 84 85 84 84 84 83 81 77 71 64 56 54 53 54 54 54 54 53 51 48 47 46 47 48 48 49 49 48 48 48 48 50 53 58 65 71 74 76 76 75 75 76 76 76 75 74 74 73 74 74 74 74 73 72 70 68 66 65
66 70 74 74 76 76 76 78 79 81 81 80 80 81 80 80 80 80 81 80 79 77 76 74 74 74 76 80 84 85 84 84 83 82 79 74 67 60 54 53 54 55 56 57 58 58 57 53 50 49 50 52 54 55 54 53 52 51 51 53 56 62 69 74 76 76 76 76 76 76 76 75 74 73 72 72 73 73 74 73 72 70 68 66 64 63
65 72 77 80 80 79 77 77 78 80 81 79 78 77 77 78 78 79 81 81 80 78 77 75 74 74 77 82 83 83 82 82 81 79 76 71 64 58 53 54 55 56 58 62 65 66 65 61 58 57 58 60 62 62 62 60 58 57 56 58 62 67 73 76 77 78 78 77 76 76 76 74 73 72 71 72 72 73 73 72 70 68 66 64 63 62
68 74 78 82 83 83 83 84 84 84 84 83 81 79 77 77 76 74 74 78 80 80 80 79 78 76 76 77 76 76 77 78 78 77 75 70 64 58 54 54 55 57 61 66 69 70 70 67 65 64 65 67 69 70 69 67 65 63 63 66 70 74 77 79 80 80 79 78 77 76 75 74 72 71 70 70 71 72 72 70 69 67 65 64 62 62
74 77 80 83 84 85 85 84 84 84 84 84 83 82 81 80 78 76 76 79 82 83 83 82 80 78 76 72 69 66 67 70 73 74 73 69 64 58 54 54 56 59 64 69 71 70 69 68 68 68 69 71 73 74 75 74 73 72 73 76 78 80 82 82 82 81 80 78 77 76 74 72 70 69 69 69 70 70 70 69 67 66 64 63 63 62
78 82 82 84 84 84 84 84 83 82 82 82 82 81 80 80 78 77 76 79 81 82 82 81 80 78 76 72 66 62 60 62 65 67 68 66 62 58 55 55 58 62 70 74 74 72 68 68 68 70 70 72 74 77 80 81 81 81 82 83 84 84 84 84 83 82 80 79 77 75 73 71 69 68 68 68 69 69 68 68 66 65 64 64 63 63
82 84 84 83 82 81 81 81 80 80 79 79 79 79 79 78 78 76 76 77 78 80 80 78 77 76 73 70 67 64 60 60 60 62 63 63 61 58 56 57 60 65 74 80 80 77 72 68 69 70 72 73 74 78 82 84 86 86 86 87 87 86 86 86 84 83 81 79 77 74 73 70 68 67 67 68 68 68 68 67 67 66 65 64 64 63
80 82 80 78 75 73 72 74 76 78 78 79 79 79 80 79 78 77 76 76 77 77 78 76 74 72 70 70 69 67 63 61 60 60 60 60 59 57 56 58 62 68 78 83 84 82 77 72 71 72 74 74 75 77 80 84 86 87 88 88 88 88 88 87 86 84 82 80 77 75 73 70 68 68 68 68 69 69 68 68 68 67 66 65 64 63
66 70 70 70 68 66 67 72 76 78 80 80 80 80 80 79 78 78 77 77 77 77 77 75 73 70 69 70 70 68 65 64 62 62 60 60 58 57 57 59 65 73 82 84 84 83 81 77 75 74 74 75 76 77 79 82 84 85 86 87 88 88 88 88 86 85 83 80 78 76 74 71 70 69 69 69 69 69 68 68 68 67 67 66 64 63
51 56 60 63 66 68 72 76 79 81 82 81 80 79 78 78 78 78 79 79 78 77 76 74 72 70 70 70 69 67 65 64 63 62 60 60 58 57 57 62 71 80 84 84 84 83 82 80 79 78 76 76 76 77 78 81 82 84 85 86 88 88 88 88 87 86 84 81 78 76 74 72 71 70 70 69 69 68 68 68 68 67 67 66 64 63
49 53 58 63 68 74 78 81 82 83 82 80 78 77 76 76 77 78 79 78 77 76 74 72 71 70 70 70 68 66 64 63 62 61 60 58 57 58 61 70 78 84 86 84 84 83 82 80 80 80 78 76 76 76 78 80 82 83 84 86 87 88 88 88 88 86 84 82 79 76 75 73 71 70 70 69 68 68 67 67 67 67 67 66 64 63
51 55 59 64 70 75 80 82 83 82 81 79 76 75 74 76 78 78 78 76 75 74 73 72 71 71 71 70 69 66 64 62 60 60 58 57 58 63 71 78 84 86 87 86 85 84 82 80 79 79 79 77 76 76 76 78 80 81 82 84 86 87 88 88 88 87 85 82 80 77 76 74 72 70 69 68 67 67 67 67 68 68 67 66 65 64
51 55 59 64 70 76 81 83 83 82 80 78 76 74 75 77 78 78 77 76 76 74 74 74 74 74 73 72 70 67 63 60 59 58 58 60 65 73 81 85 86 87 87 87 86 84 82 80 78 78 78 78 78 77 77 77 78 79 80 82 84 86 88 88 88 87 86 84 81 78 76 75 73 71 70 68 68 67 68 68 68 68 67 66 65 64
53 57 60 66 72 78 82 83 82 81 79 77 76 75 76 76 78 78 78 77 77 77 77 77 76 76 76 74 72 69 66 64 62 62 64 69 75 82 87 87 88 88 87 86 84 81 79 77 76 76 76 77 78 78 79 78 77 77 78 79 81 83 86 88 88 88 86 85 82 80 78 76 74 72 70 69 69 69 69 69 69 68 67 66 65 64
54 58 61 67 74 80 84 83 82 80 78 77 76 76 76 77 78 78 79 79 80 80 80 80 80 79 78 77 76 74 73 72 72 72 74 78 82 86 88 86 86 85 84 83 82 79 77 75 74 73 74 74 76 78 79 79 78 78 77 77 78 80 83 86 87 87 86 85 83 80 78 76 75 73 71 70 70 70 70 70 70 68 67 65 64 64
55 57 61 68 76 82 84 83 81 80 78 77 77 78 78 79 80 81 82 83 83 84 84 84 83 82 82 82 82 82 82 82 82 82 82 84 85 86 85 84 83 82 82 82 81 80 78 76 74 73 73 74 74 76 78 78 78 78 78 77 77 78 81 83 85 86 86 84 82 80 78 76 74 73 72 71 71 71 71 71 70 68 67 66 64 64
55 57 61 69 77 83 84 82 81 80 79 79 80 81 82 82 83 84 84 85 85 85 86 86 85 85 85 86 86 86 87 86 86 85 85 85 84 84 83 82 82 82 82 82 82 82 81 79 77 75 73 73 73 74 76 77 78 79 79 78 78 78 79 82 84 85 84 83 81 79 77 76 74 73 72 72 72 72 72 71 70 69 68 66 64 63
56 58 63 71 78 83 84 83 82 81 81 82 83 84 85 85 85 85 85 85 85 86 86 86 86 86 86 86 87 87 87 86 85 85 84 84 84 84 83 82 82 81 81 80 80 80 79 79 78 76 74 73 72 72 72 74 76 78 79 79 79 79 80 81 83 84 82 80 79 77 76 74 73 73 73 73 73 73 72 72 70 69 68 66 64 62
58 61 66 73 79 82 83 83 83 83 84 85 86 86 86 86 86 85 85 86 86 86 86 86 86 86 86 86 87 87 87 87 86 86 85 84 84 83 82 80 79 78 76 76 75 74 74 75 76 76 75 74 73 72 71 71 73 75 77 79 80 80 80 81 82 82 81 79 77 76 74 73 73 73 73 74 74 74 73 72 70 69 67 65 63 62
60 63 69 75 79 81 82 82 83 84 85 86 86 86 86 86 86 86 86 86 86 86 86 86 86 86 86 86 87 87 87 86 86 84 83 82 80 79 78 76 76 74 73 72 71 71 70 71 72 74 74 75 74 73 72 71 71 73 74 77 79 81 81 81 82 81 80 78 77 76 74 73 73 73 74 75 76 76 74 73 71 69 66 64 63 62
63 66 72 76 78 79 80 81 83 84 86 86 86 86 86 86 86 86 86 86 86 86 86 86 86 86 86 86 85 85 84 84 83 81 79 78 76 74 74 72 71 70 69 68 68 68 68 68 68 70 72 74 74 74 74 73 73 73 74 76 78 80 81 82 82 81 80 78 77 76 74 74 74 74 75 76 76 76 76 74 71 69 66 64 63 62
68 71 74 76 77 77 78 80 83 84 85 86 86 86 86 86 86 86 86 86 86 86 86 86 86 85 85 84 83 82 80 80 78 78 76 74 72 70 69 68 66 66 65 64 64 64 64 65 66 68 70 72 74 76 76 76 76 76 76 77 78 80 80 81 81 81 80 78 77 76 75 74 74 74 76 76 77 77 76 74 71 68 66 64 63 63
74 76 77 77 76 77 80 83 84 85 86 86 86 86 86 86 86 86 86 86 86 85 85 85 84 84 83 82 80 78 76 74 74 73 73 71 70 68 67 65 64 63 62 62 62 62 62 63 66 68 71 73 76 77 78 79 80 80 79 79 80 80 80 81 80 80 79 78 77 76 76 76 75 76 76 77 77 77 76 73 70 68 66 64 64 64
77 78 78 77 78 80 83 85 86 86 86 86 86 86 86 86 86 86 86 85 85 85 84 84 83 82 81 79 77 74 73 72 71 71 71 70 70 68 67 66 64 63 62 62 62 62 63 64 67 70 74 77 79 80 81 82 82 82 82 81 81 81 81 81 80 80 79 78 78 77 77 76 76 76 76 78 78 78 76 73 70 67 65 65 65 65
78 79 79 80 82 84 85 85 85 85 85 85 85 85 86 86 86 86 86 85 85 85 84 83 82 80 79 77 75 73 72 71 71 71 71 70 70 69 68 67 66 66 65 65 65 66 67 69 72 75 78 81 83 84 84 84 84 84 83 82 82 82 82 81 80 80 80 80 79 79 78 78 78 78 78 78 79 78 76 72 69 67 66 66 66 66
79 80 81 83 84 84 85 85 85 85 85 85 85 85 85 85 86 86 86 85 85 84 84 82 80 79 78 76 74 73 72 72 72 73 73 72 71 70 70 70 70 70 70 70 72 73 76 77 79 82 84 84 85 86 86 85 84 84 84 84 83 83 82 82 81 81 81 81 80 80 79 79 78 78 78 78 78 77 75 72 69 67 66 67 67 67
80 81 83 84 84 84 85 85 85 85 85 84 84 84 85 85 85 85 86 86 85 84 83 82 80 78 77 76 74 73 73 73 74 74 74 74 73 72 72 72 72 73 74 76 77 79 82 83 84 85 85 85 86 86 86 86 85 85 84 84 84 84 84 83 82 82 82 81 81 80 80 79 78 78 77 77 77 76 74 71 69 68 68 68 68 68
Wind_Speed
49 49 48 47 46 45 44 43 43 43 43 43 42 42 41 41 41 42 42 43 43 44 44 44 44 44 43 42 41 41 40 39 38 37 37 36 35 35 34 34 34 33 33 33 34 35 35 36 36 36 36 36 36 35 35 35 36 36 36 36 37 37 37 38 38 38 39 39 39 39 40 40 40 40 40 41 42 42 42 42 42 41 40 40 41 42
49 48 48 47 46 45 44 43 43 42 43 43 42 42 41 41 41 41 42 42 43 43 44 44 43 43 42 42 41 40 39 38 37 36 36 35 34 33 33 32 31 31 31 31 31 32 32 32 32 32 32 32 31 31 31 32 32 32 33 33 34 34 35 35 35 36 36 36 36 37 37 37 37 37 38 39 39 40 40 41 41 40 40 40 40 40
47 47 47 46 45 44 44 43 43 42 42 42 42 42 41 41 41 41 41 41 42 42 42 42 42 41 41 39 38 37 36 35 35 34 34 33 32 32 31 30 30 30 29 29 29 29 29 29 28 28 28 28 28 28 29 29 29 30 30 31 32 32 32 33 33 33 34 34 34 34 34 34 35 35 35 36 37 37 38 39 39 39 39 39 39 39
46 46 45 45 44 44 43 42 42 42 42 42 42 42 41 41 41 41 41 41 41 41 41 41 40 39 38 37 35 33 32 31 31 31 31 30 30 30 29 29 29 28 28 28 27 27 26 26 26 26 26 26 26 26 27 27 28 28 29 29 30 30 31 31 31 32 32 32 32 32 32 33 33 33 33 34 34 35 35 36 37 37 38 38 38 38
45 44 44 44 43 43 42 42 41 41 41 42 42 42 42 41 41 41 41 40 40 40 40 39 38 37 35 34 32 30 29 28 27 27 27 28 28 28 28 28 27 27 26 26 25 25 24 24 24 24 24 25 25 25 26 26 27 27 28 28 28 29 29 30 30 30 31 31 31 31 31 31 31 32 32 32 32 33 33 34 34 35 36 36 36 36
44 44 43 43 43 42 42 41 41 41 41 42 42 42 42 41 41 41 40 40 39 39 38 37 35 33 32 31 29 28 26 25 25 24 25 25 26 26 26 26 25 25 24 24 24 23 23 23 23 24 24 24 24 25 25 25 26 26 27 27 27 28 28 28 29 29 30 30 30 30 30 30 30 30 30 30 30 31 31 32 32 33 33 33 34 34
44 43 43 43 42 42 41 41 40 40 41 42 42 42 41 41 41 40 40 39 38 37 36 34 32 30 29 28 27 26 25 24 24 23 23 23 23 23 24 24 23 23 22 22 22 22 22 23 23 24 24 24 25 25 25 25 25 25 25 25 26 26 27 27 27 28 28 28 28 28 28 28 28 28 28 28 28 28 29 29 29 30 30 31 31 31
43 43 42 42 42 42 42 41 40 40 40 41 42 42 42 41 40 39 38 37 36 34 32 31 29 27 26 25 25 25 24 24 23 23 22 22 21 21 21 21 21 21 21 21 21 21 22 22 23 24 24 25 25 25 25 25 24 24 24 24 24 24 25 25 25 26 26 26 26 25 25 25 25 25 25 25 25 26 26 26 27 27 28 28 29 29
42 42 42 41 41 41 42 41 40 40 40 40 41 42 42 41 41 39 38 36 33 31 29 27 26 25 23 23 23 23 24 24 23 22 22 21 21 20 20 20 19 19 20 20 20 21 21 22 23 24 25 25 25 25 24 23 23 22 22 22 22 23 23 23 23 23 23 23 23 23 23 23 23 23 23 23 24 24 24 25 25 26 26 27 28 28
42 41 41 41 41 41 40 41 40 40 39 40 41 41 41 41 40 39 37 35 31 28 26 25 24 23 22 21 21 21 22 22 21 21 20 20 20 20 20 20 19 19 19 19 20 20 21 22 22 23 24 24 24 23 22 22 21 21 21 21 21 21 21 21 21 21 21 21 21 22 22 22 22 22 23 23 23 23 24 24 25 25 26 27 27 27
42 41 41 41 41 41 40 40 40 40 40 40 41 41 40 39 38 38 37 34 30 26 24 23 23 22 21 20 19 19 19 20 20 19 19 20 20 20 20 20 19 19 19 19 19 19 20 21 22 22 22 21 21 21 21 21 21 21 21 21 20 20 20 20 20 20 20 21 21 21 22 22 23 23 23 24 24 24 25 25 26 26 27 27 27 28
41 41 41 41 41 41 41 41 41 41 41 41 41 41 40 38 37 36 35 33 30 25 22 22 21 20 20 19 18 17 17 18 18 18 19 19 20 20 20 20 19 19 18 18 18 18 19 20 21 21 20 20 20 20 21 22 22 22 21 21 20 20 20 20 19 20 20 21 21 22 23 23 24 24 25 25 26 26 27 27 28 28 28 29 29 29
41 41 41 42 42 41 41 41 41 42 41 41 40 40 39 38 36 33 32 30 27 24 22 22 21 20 18 18 17 17 17 18 18 18 18 19 19 20 20 19 19 18 18 17 17 17 18 19 20 20 20 21 22 23 24 25 25 25 24 23 22 21 21 20 20 20 20 21 22 22 23 24 25 26 26 27 27 28 28 29 29 29 30 30 30 30
42 42 42 42 42 41 41 41 41 41 40 40 39 39 38 36 34 31 30 28 25 23 22 23 22 20 18 17 17 17 18 19 19 19 18 18 19 19 20 19 18 18 17 17 17 17 17 19 20 21 22 23 24 25 26 27 27 26 26 25 25 24 23 22 21 21 21 21 22 22 23 24 25 26 27 27 28 29 29 30 30 30 30 30 30 31
41 41 41 41 41 40 40 40 39 39 39 38 37 36 35 34 32 30 29 29 26 24 24 24 23 22 19 17 17 18 20 21 21 20 19 18 18 18 19 19 18 18 18 18 18 18 18 19 21 22 23 23 24 24 24 24 24 25 25 26 26 25 25 24 23 23 23 23 23 23 24 24 25 25 26 27 28 28 29 29 30 30 30 30 30 30
40 40 40 40 40 39 39 38 37 37 37 36 35 33 32 31 31 30 30 30 28 26 25 25 25 23 20 18 17 19 21 23 23 21 19 17 17 17 18 19 19 18 18 18 19 19 19 21 22 23 23 23 23 23 22 22 22 23 23 24 25 25 26 26 25 25 25 25 25 25 26 26 26 26 26 27 27 28 28 28 28 28 29 29 29 29
39 39 38 39 38 38 37 37 36 35 35 33 32 31 30 30 30 31 31 30 29 28 27 26 25 24 22 19 18 19 21 23 23 22 19 17 16 16 18 19 19 19 18 19 19 20 20 21 22 23 23 23 23 23 23 24 23 23 23 24 25 25 26 26 26 27 27 27 27 28 28 27 27 27 27 27 27 27 27 27 27 27 27 27 28 28
38 37 37 37 37 37 36 35 35 34 33 32 31 30 30 30 30 31 31 31 30 29 28 26 25 24 22 19 17 17 20 23 24 23 21 19 16 16 18 19 20 19 19 19 19 20 21 23 23 24 24 24 24 25 25 26 26 26 25 25 25 26 26 26 27 27 28 28 29 29 29 28 28 27 27 26 26 26 25 25 25 25 25 25 26 26
37 36 36 36 36 36 35 34 34 33 32 31 30 30 31 31 31 31 31 31 31 30 29 27 26 24 22 20 18 18 20 24 26 27 25 22 19 17 18 20 21 21 20 19 20 21 22 24 24 25 25 26 26 27 27 28 28 28 28 27 27 27 27 27 27 28 28 28 29 29 28 28 27 26 26 25 25 24 24 24 24 24 24 24 24 24
36 35 35 34 35 35 35 34 33 31 31 30 30 31 32 32 33 32 32 31 31 30 29 28 27 25 23 22 22 22 24 27 29 30 28 26 22 20 20 22 24 24 23 22 21 22 23 24 25 26 27 27 28 28 29 29 29 29 29 29 29 28 28 28 28 28 28 28 27 27 27 26 25 25 24 24 23 23 23 23 23 23 22 23 23 23
34 34 34 33 33 34 34 33 32 30 29 29 30 31 33 34 34 34 33 32 31 30 29 29 27 26 25 26 26 27 27 28 30 30 29 28 26 24 23 25 27 28 27 25 24 25 26 26 27 27 28 28 29 29 29 30 30 30 30 30 29 29 28 28 28 27 26 26 25 25 24 24 23 23 23 22 22 22 22 22 22 22 22 22 22 22
33 33 33 32 32 32 33 32 31 30 29 30 31 32 33 34 34 34 34 33 32 31 30 29 28 27 27 28 29 28 27 27 27 28 29 29 28 27 26 28 30 31 30 29 28 28 29 29 28 28 28 29 29 30 30 30 30 30 30 30 29 28 28 27 27 25 24 23 23 22 22 21 21 21 21 21 21 21 21 21 21 21 21 21 21 22
31 32 32 32 31 31 31 30 30 29 29 30 31 32 32 32 33 34 34 33 33 32 31 30 29 29 29 29 28 27 26 25 25 27 28 29 29 29 29 30 32 32 32 32 31 31 31 30 29 29 29 29 29 30 30 29 29 29 29 29 28 27 27 26 25 23 22 21 20 20 20 20 20 20 21 21 21 21 21 21 21 21 21 21 21 22
29 30 31 31 30 30 29 29 29 29 30 31 31 32 32 32 33 33 34 33 33 32 32 32 32 32 31 29 28 26 25 25 25 27 29 30 31 31 31 32 32 33 34 34 33 33 32 30 29 28 28 29 29 28 28 28 28 28 28 27 26 26 25 24 23 21 20 19 19 19 19 19 19 20 20 20 20 20 21 21 21 21 21 21 22 22
28 29 30 30 30 30 29 29 29 29 30 31 32 33 33 33 33 34 34 33 33 32 32 32 33 33 32 30 29 29 28 28 29 29 31 32 33 33 32 31 32 34 35 35 35 33 31 29 28 27 27 26 26 26 26 26 26 25 25 25 24 24 23 22 21 20 19 18 18 18 19 19 19 19 20 20 20 20 20 20 20 21 21 21 22 22
29 30 30 30 31 30 30 30 29 30 30 31 32 32 32 33 34 34 35 34 33 32 32 32 33 33 32 31 32 32 32 32 31 32 33 34 35 34 32 31 33 35 37 37 35 33 31 28 26 24 24 23 23 23 23 23 23 23 23 23 22 22 22 21 20 19 19 18 18 19 19 19 19 19 19 19 19 20 20 20 20 20 21 21 22 22
29 29 30 30 31 31 31 31 30 30 29 30 30 31 32 33 33 34 34 34 34 34 34 33 32 31 31 32 33 34 34 33 32 32 33 34 34 33 32 31 34 37 38 37 35 32 29 27 24 22 21 20 20 20 20 20 21 21 21 21 21 21 20 20 19 19 19 19 19 19 20 20 20 20 19 19 19 19 19 20 20 20 21 22 22 22
29 29 29 30 30 31 32 32 32 32 31 31 32 33 34 34 34 33 33 33 34 35 35 34 33 32 32 33 35 35 34 33 32 32 33 34 34 33 32 33 35 37 38 36 31 28 25 23 21 20 18 18 17 18 18 18 19 19 19 19 19 19 19 19 19 19 19 20 20 20 21 21 20 20 20 19 19 19 19 19 20 20 21 21 22 22
30 30 30 30 31 32 33 34 35 35 35 35 36 37 37 37 36 35 34 33 33 33 33 33 33 33 34 36 37 37 36 34 33 33 34 34 34 34 34 35 37 38 37 33 28 24 21 19 18 17 16 15 15 15 16 17 17 18 18 18 18 18 19 19 19 20 20 20 21 21 21 21 21 20 20 19 19 18 19 19 20 20 21 21 21 22
30 31 32 32 33 34 35 35 36 36 37 37 38 38 39 39 38 36 35 34 33 33 32 32 33 33 35 37 38 38 37 35 35 35 35 36 36 36 35 37 38 37 35 32 28 24 20 17 16 15 14 13 13 14 14 15 16 16 17 17 17 18 19 19 20 20 21 21 22 22 22 22 21 21 20 19 18 18 18 19 19 20 20 20 21 21
29 31 33 35 36 36 36 36 36 36 36 36 37 38 38 38 38 37 36 36 35 35 34 33 33 33 34 35 36 36 36 35 35 35 36 37 37 37 37 38 38 36 32 30 27 25 22 18 15 13 13 12 12 12 13 14 15 15 16 16 17 18 19 19 20 21 21 22 22 23 23 22 21 21 20 19 18 18 18 19 19 19 20 20 20 21
29 32 35 37 38 38 37 35 34 34 35 35 36 37 37 37 36 36 35 35 36 36 35 34 33 33 33 32 33 33 33 33 33 34 35 37 37 37 37 37 36 33 29 26 25 25 23 19 16 13 12 12 11 12 12 13 14 15 15 16 16 17 18 19 20 21 21 22 22 23 23 23 22 21 19 19 18 18 18 18 18 19 19 19 20 20
31 33 36 37 38 37 35 34 33 33 34 35 36 36 36 35 34 33 33 33 33 34 34 34 33 32 31 30 30 30 30 30 31 32 33 35 35 35 35 34 33 30 26 24 23 23 22 21 18 15 14 12 12 12 12 13 13 14 14 14 15 15 16 18 19 20 21 21 22 23 23 22 21 20 19 18 18 18 17 18 18 18 18 19 20 20
34 34 35 36 36 35 34 33 33 34 35 35 35 34 32 31 30 29 29 29 30 31 32 32 31 31 30 29 29 29 28 28 28 30 31 32 33 33 32 30 28 26 24 23 22 21 21 20 19 18 16 14 13 13 12 13 13 13 13 14 14 14 15 16 17 18 19 20 21 22 22 21 21 20 19 18 17 17 17 17 17 18 18 19 20 21
35 35 34 34 34 33 33 33 34 34 34 33 32 30 28 27 25 25 25 26 27 29 29 30 30 30 30 30 29 28 27 26 26 27 29 30 30 30 28 26 24 23 23 22 20 20 20 19 19 19 18 16 14 13 13 13 13 13 13 13 13 13 13 14 15 16 17 19 19 20 20 20 20 19 18 18 17 17 17 17 17 17 18 19 20 21
35 35 34 33 32 32 32 32 32 32 31 30 28 27 25 23 22 22 22 23 25 26 27 28 28 29 29 29 29 28 27 25 25 25 26 27 27 27 26 24 22 21 21 20 19 19 20 19 19 18 18 17 16 14 13 13 13 13 13 13 13 13 13 13 14 15 16 17 18 18 19 19 19 18 18 17 17 17 17 17 17 17 18 19 20 21
35 34 33 32 30 30 30 31 30 30 28 27 25 24 22 20 19 19 20 21 23 24 25 26 27 27 27 26 26 26 25 24 23 23 24 24 24 24 24 23 21 19 19 19 19 20 20 20 19 19 18 17 17 16 15 14 14 13 13 13 13 13 12 12 13 14 15 16 17 17 18 18 18 18 18 17 17 17 17 17 17 18 18 19 20 21
34 33 32 30 29 28 29 29 28 27 26 24 23 22 20 19 18 18 19 20 21 22 23 24 24 24 24 24 23 23 23 22 22 21 21 21 21 22 23 22 20 18 19 19 20 21 21 21 21 20 19 18 17 17 16 16 15 14 14 14 14 13 13 12 13 13 14 15 16 17 18 18 18 18 18 18 17 17 17 17 17 18 18 19 20 21
33 32 30 28 27 26 27 27 26 25 23 22 21 19 18 17 17 18 18 19 19 20 21 21 22 22 21 21 21 21 21 20 20 20 19 19 20 21 22 21 20 19 20 20 21 22 22 22 22 22 21 20 19 18 17 17 16 16 15 15 14 14 13 13 13 14 14 15 16 17 18 18 18 18 18 18 18 18 17 17 17 18 18 19 20 21
32 30 28 26 25 25 25 25 24 23 21 20 19 18 17 16 16 17 17 17 18 19 20 20 20 20 19 19 19 19 19 19 19 19 19 20 20 21 22 22 21 21 21 22 22 23 23 23 23 23 22 22 21 20 19 18 18 17 17 16 15 15 14 14 14 15 15 16 17 18 18 19 19 19 19 18 18 18 18 17 17 18 18 19 20 20
31 29 26 24 23 23 23 23 22 21 19 18 17 16 16 16 16 17 17 18 18 19 19 19 19 18 17 17 16 17 17 18 18 19 20 20 21 22 22 22 22 23 23 23 23 23 24 24 24 24 23 23 22 22 21 20 19 18 18 17 17 16 16 15 15 15 16 17 18 18 19 19 19 19 19 19 19 18 18 18 17 18 18 19 19 20
30 27 25 23 22 21 22 21 21 20 18 17 17 17 17 17 18 18 18 19 19 19 19 18 17 16 15 14 14 15 16 17 18 19 20 21 21 22 22 23 23 23 24 24 24 24 25 25 25 25 24 24 24 23 22 21 20 19 19 18 18 17 16 16 16 16 17 17 18 19 19 19 19 19 19 19 19 19 18 18 18 18 18 19 19 20
28 26 24 22 21 20 20 20 20 19 18 18 18 18 18 18 18 19 19 20 20 19 18 17 16 15 14 13 14 14 16 17 18 19 20 21 21 22 23 24 24 25 25 25 26 26 26 26 26 26 26 25 25 24 24 23 21 20 19 19 18 18 17 16 16 17 17 18 18 18 18 18 18 18 18 18 19 18 18 18 18 18 18 19 19 20
28 25 23 21 20 20 20 20 19 19 18 18 19 18 18 18 19 19 20 20 19 18 17 16 14 14 14 13 14 14 15 16 17 19 20 21 22 23 24 24 25 26 26 27 27 27 27 27 27 27 27 27 26 25 25 24 23 22 21 20 19 18 18 18 17 17 17 18 18 18 18 18 18 18 18 18 18 18 18 18 18 18 18 18 19 19
27 25 22 21 20 19 20 19 19 18 18 18 18 18 18 19 19 20 20 20 19 18 17 15 15 14 14 14 14 15 16 17 18 19 21 22 23 24 24 25 26 26 27 27 28 28 28 28 28 28 28 28 27 27 26 25 24 23 22 21 20 20 19 19 19 18 18 18 18 18 18 18 17 17 17 17 18 18 18 18 18 18 18 18 19 19
26 24 21 20 20 20 20 20 19 18 18 18 18 18 19 19 19 20 20 20 20 18 17 16 15 15 15 15 16 16 17 18 19 20 21 22 23 24 25 25 26 26 27 27 28 28 28 29 29 29 29 28 28 27 27 26 25 25 24 23 22 22 21 20 20 19 19 19 18 18 18 18 17 17 17 17 18 18 18 18 18 18 18 18 18 18
24 22 21 20 20 20 20 20 19 19 18 18 18 18 19 19 20 21 21 20 20 19 17 16 16 16 16 17 18 18 19 19 19 20 21 22 23 24 24 25 26 26 27 27 27 28 28 28 29 29 29 28 28 27 27 27 26 26 25 25 24 23 23 22 21 21 20 20 19 19 19 18 18 18 18 18 18 18 19 19 18 18 18 18 18 18
21 21 21 21 21 21 21 20 20 19 19 19 19 19 19 20 21 21 21 21 19 18 17 17 17 17 17 18 19 20 20 20 21 21 21 22 23 23 24 24 25 25 26 26 27 27 27 27 28 28 27 27 27 26 27 27 26 26 26 26 25 25 24 24 23 23 22 21 21 20 20 20 19 19 19 19 19 19 19 19 19 18 18 18 17 17
20 21 21 22 22 21 21 21 20 20 20 19 19 19 20 20 21 22 22 20 19 18 17 17 17 18 18 19 20 21 21 22 22 22 22 23 23 23 23 23 23 24 24 25 25 25 25 25 25 25 25 25 25 25 25 26 26 26 26 26 26 25 25 25 24 24 23 23 22 22 21 21 21 20 20 20 19 20 20 20 19 19 18 17 17 17
21 21 22 22 22 22 21 21 21 20 20 20 20 20 20 21 21 21 21 20 19 18 17 18 18 18 19 20 21 21 22 22 23 23 23 23 23 22 22 21 21 21 21 22 22 22 22 21 21 21 22 22 22 23 23 24 25 25 25 25 25 26 25 25 25 25 24 24 23 23 22 22 22 21 21 21 20 20 21 20 20 19 18 17 17 17
21 21 21 22 22 22 22 21 21 21 21 21 21 21 21 21 21 21 20 19 18 17 17 18 18 19 20 20 21 22 22 23 23 23 23 23 23 22 22 21 20 19 18 18 18 17 17 17 16 17 17 18 19 20 20 21 22 22 23 23 24 25 25 25 25 25 24 24 23 23 23 23 22 22 22 21 21 21 21 20 20 19 18 17 17 16
Wind_Direction
307 308 308 308 308 308 308 307 307 306 305 305 304 304 303 303 303 303 303 303 302 302 301 301 301 301 301 300 300 299 297 296 294 292 290 288 287 285 283 281 280 278 276 275 274 273 271 270 268 267 266 265 264 264 264 263 263 263 264 264 264 264 264 264 264 265 265 265 265 265 265 265 265 265 264 264 263 262 262 261 260 259 259 259 259 260
307 308 308 308 308 308 307 307 306 306 306 305 305 304 304 303 303 302 302 302 302 301 301 301 301 301 301 301 300 299 298 297 295 294 292 291 289 288 286 284 282 280 278 277 275 274 272 271 269 267 265 264 263 262 262 263 263 263 264 264 264 265 265 266 266 266 267 267 267 267 267 267 267 266 266 265 264 264 263 261 260 258 257 256 256 257
307 307 307 307 307 307 307 307 307 306 306 305 305 304 304 303 302 302 302 301 301 300 300 300 300 300 300 299 298 297 296 296 295 294 293 293 292 290 289 287 285 283 281 279 277 275 273 270 267 265 263 262 262 262 262 262 263 264 265 265 266 266 266 267 267 268 268 268 268 268 268 268 267 267 266 266 265 265 264 263 262 260 258 256 255 256
307 307 307 307 307 307 307 307 306 306 305 305 304 303 303 303 302 302 301 301 300 300 299 299 299 298 298 296 294 293 292 292 293 293 294 294 294 293 291 290 288 285 283 280 278 276 272 269 266 263 261 261 261 262 262 263 264 264 265 266 267 267 268 268 268 268 269 269 269 269 268 268 268 267 267 267 266 266 265 265 264 263 261 259 257 256
306 306 306 306 306 306 306 306 306 305 305 304 303 303 303 303 302 302 301 301 300 299 299 298 297 296 294 292 290 288 287 287 288 290 292 294 294 294 293 292 290 287 285 282 279 276 273 269 266 263 262 262 262 263 264 265 266 266 267 267 267 268 268 268 268 268 268 268 268 268 268 268 268 268 268 268 268 268 267 267 266 265 264 263 260 258
305 305 305 305 305 305 306 306 305 305 305 304 304 303 303 303 302 302 302 301 300 300 299 297 295 293 290 287 284 282 281 281 283 286 289 292 294 294 294 293 292 290 288 285 282 278 275 271 269 267 266 266 267 267 268 269 269 269 269 269 269 269 269 268 268 268 267 267 267 267 268 268 268 269 269 269 269 269 269 268 268 267 266 265 263 261
305 305 305 305 305 305 305 305 305 305 305 304 304 303 303 303 303 302 302 302 301 300 298 296 293 289 285 281 278 276 276 277 279 282 285 288 290 292 294 294 294 293 292 289 285 282 278 275 273 272 272 272 272 273 273 274 274 274 273 273 272 271 270 269 269 268 268 268 268 268 268 269 269 269 269 270 270 270 269 269 268 268 267 266 265 263
305 305 305 305 305 305 305 305 305 305 305 304 304 303 303 303 303 302 302 302 301 300 297 294 289 284 279 275 273 272 272 274 275 278 280 283 285 288 290 292 294 295 294 292 289 286 282 279 278 277 276 276 277 278 278 279 279 279 278 277 276 275 273 272 271 271 270 270 270 270 270 270 269 269 269 269 269 269 269 269 268 268 267 266 265 264
304 305 305 304 304 304 304 304 305 305 304 304 303 303 304 303 303 303 303 302 301 298 294 289 284 278 273 270 269 269 270 271 273 274 276 278 280 283 286 289 292 294 294 293 292 289 286 283 281 280 280 280 281 282 283 283 284 283 283 281 280 278 277 276 275 274 274 273 272 272 271 271 270 270 270 270 270 270 269 269 269 268 268 267 266 265
303 303 303 303 303 303 303 304 304 304 304 303 303 304 304 304 304 304 304 303 300 295 289 283 277 273 269 266 264 265 267 269 269 270 272 274 277 280 283 286 288 290 292 292 291 290 288 286 284 283 283 284 285 286 287 287 287 287 286 285 284 282 281 279 278 277 276 275 274 274 273 273 273 272 272 272 272 272 272 272 272 271 271 270 269 268
303 302 303 302 303 303 303 304 304 304 305 304 304 305 305 305 306 305 305 303 299 291 282 275 271 268 266 262 259 259 262 265 267 268 269 271 273 276 279 282 285 288 289 290 289 289 288 287 287 286 286 287 287 287 288 288 288 289 289 288 287 285 284 282 281 279 278 277 276 275 275 275 275 275 275 275 276 276 276 276 275 275 275 274 273 272
302 302 303 303 304 304 305 306 306 306 306 306 306 306 306 307 307 307 305 302 297 289 276 267 263 262 261 260 258 257 258 263 267 269 269 270 270 272 274 278 282 285 286 287 286 285 284 285 286 287 287 286 285 284 283 284 285 287 289 289 289 288 286 284 283 281 280 279 278 277 277 277 277 277 277 278 278 278 278 278 277 277 277 276 276 275
303 304 304 305 305 307 308 308 309 308 308 308 307 307 307 307 308 307 305 302 296 287 275 264 258 255 255 257 260 262 263 265 268 270 270 270 269 269 270 273 277 279 280 280 278 277 277 279 281 283 282 280 279 278 277 278 279 282 284 286 287 287 286 285 283 281 281 280 279 279 279 278 278 278 278 278 278 278 278 277 277 277 277 277 277 276
305 306 306 307 307 308 309 309 309 308 307 307 307 307 307 307 308 309 307 304 297 287 276 268 259 253 252 255 262 267 270 271 271 271 271 270 269 268 268 270 272 273 273 271 270 268 268 271 273 274 273 273 273 273 275 276 278 279 281 282 283 284 283 283 282 281 281 281 281 281 280 280 279 278 277 276 276 276 276 276 276 276 276 277 277 277
305 306 306 307 307 308 308 308 307 306 306 306 307 307 307 308 310 311 310 307 301 292 281 273 265 258 253 256 265 273 277 278 277 276 273 271 271 271 271 271 270 268 267 266 265 264 263 265 266 266 267 270 272 275 277 278 279 280 280 281 281 282 282 282 282 282 283 283 283 283 283 282 280 278 277 275 275 274 274 275 275 275 276 276 276 276
303 304 304 305 305 306 306 306 305 305 305 306 307 307 309 310 312 312 311 309 304 298 289 282 274 266 258 258 268 279 284 285 284 282 279 275 274 275 276 275 272 269 266 265 264 262 261 261 262 264 268 272 276 279 280 280 280 279 279 279 280 280 281 282 283 284 284 285 285 285 284 283 281 279 277 276 275 275 275 275 276 276 276 276 276 276
301 302 302 303 304 304 305 305 305 305 305 306 308 310 311 311 311 311 310 309 306 301 294 287 281 275 269 267 273 283 289 291 291 289 286 282 280 280 281 280 277 273 269 267 266 264 263 261 262 265 269 274 277 279 280 279 279 278 277 277 277 278 279 280 281 282 283 284 284 284 283 282 281 279 278 277 276 276 277 277 277 277 277 276 276 275
300 301 302 303 303 304 304 304 305 306 307 309 311 312 312 311 310 309 308 308 306 302 297 289 283 279 278 278 282 288 293 294 295 294 292 289 285 284 284 284 282 279 275 272 271 269 267 265 265 267 270 274 276 277 277 277 277 277 276 276 277 277 277 278 279 280 281 281 281 280 279 279 278 277 277 277 277 278 278 279 279 279 278 278 277 277
300 301 302 303 304 304 304 305 306 308 310 312 312 311 309 307 306 305 305 305 304 301 296 290 283 279 279 282 288 292 294 294 294 294 293 291 289 287 287 288 287 285 283 280 278 275 273 270 268 268 270 272 274 274 275 275 275 275 276 277 277 278 278 279 280 280 280 279 278 277 276 275 275 275 275 276 278 279 279 280 280 281 281 280 280 280
301 302 304 305 305 305 306 308 310 312 313 312 311 308 305 304 304 303 303 303 301 298 293 288 284 280 280 284 289 293 293 292 291 290 289 289 289 290 291 293 293 293 290 287 285 282 278 274 271 269 269 270 272 273 273 273 273 274 275 276 277 278 279 280 281 281 280 277 275 274 272 272 272 273 275 276 278 279 281 282 282 282 283 283 283 282
302 304 305 306 307 307 308 310 313 314 313 310 307 304 303 303 303 303 303 301 298 294 290 286 283 281 282 287 290 292 291 289 287 286 285 286 288 291 294 296 297 297 296 293 290 287 283 279 274 271 270 270 270 271 272 272 272 272 273 274 275 277 279 280 281 280 278 275 272 270 269 269 270 272 275 277 279 280 281 282 283 283 284 284 284 285
303 305 306 307 307 308 310 312 313 312 310 306 303 301 301 302 303 303 302 300 296 291 287 284 282 281 284 289 292 292 290 286 283 282 282 284 287 291 295 297 299 299 299 297 294 290 286 282 277 274 271 270 270 271 271 270 270 270 271 272 273 275 278 280 280 279 276 272 269 268 267 268 270 272 275 277 279 280 281 282 283 284 284 285 286 287
304 305 306 306 306 307 309 310 310 309 306 303 300 300 301 302 303 303 302 299 295 290 285 281 279 280 284 289 293 293 290 285 281 280 282 284 287 291 294 297 299 300 300 299 297 293 288 283 279 275 272 271 271 271 270 269 268 268 268 269 271 274 277 279 279 277 273 269 267 266 266 268 270 272 274 276 278 279 280 281 282 284 285 287 288 290
301 302 303 302 302 303 305 305 305 305 303 301 300 300 301 302 303 304 303 300 296 291 285 281 279 279 281 286 289 290 287 284 281 281 283 285 288 290 293 296 298 300 301 301 298 295 289 284 278 274 272 271 270 270 269 268 266 266 266 267 270 273 275 277 276 273 270 267 265 265 266 268 270 272 274 275 277 278 279 281 282 284 285 287 289 291
298 298 298 297 297 298 300 302 302 302 302 301 300 300 300 302 303 303 302 300 298 294 290 285 282 280 280 282 284 285 283 282 282 283 285 287 288 289 291 295 299 302 303 303 300 296 291 285 279 274 272 270 270 269 267 266 265 264 264 266 268 271 274 274 273 270 267 265 265 266 267 268 270 272 273 274 276 278 279 281 282 284 286 288 290 291
298 297 296 294 294 296 299 300 300 299 297 296 295 295 296 297 299 299 298 297 296 296 293 289 284 281 279 280 281 282 282 282 283 284 286 287 288 288 291 295 300 303 305 304 301 297 293 287 280 275 272 270 269 267 266 264 263 262 263 265 267 270 272 271 270 267 265 265 265 266 267 268 270 271 273 274 276 278 279 281 283 285 287 289 291 293
299 297 295 293 292 293 295 295 293 291 288 286 284 284 286 289 290 291 290 291 292 293 292 289 285 281 279 278 278 279 280 281 283 284 285 286 286 287 290 295 300 304 305 304 301 296 292 287 282 277 273 270 268 266 264 262 261 261 262 264 266 268 269 269 267 265 264 264 265 266 267 268 270 271 273 275 277 278 280 282 284 286 288 290 292 294
300 298 296 293 291 290 289 288 287 286 283 281 280 280 282 284 285 285 285 286 288 289 289 286 283 280 278 277 276 275 276 278 280 281 282 283 284 286 289 294 299 303 304 303 299 294 290 286 282 277 272 267 264 262 260 259 259 259 260 262 265 266 266 265 264 262 262 263 264 266 267 269 270 272 274 276 277 278 280 281 284 286 289 291 293 294
301 300 298 294 291 289 288 287 286 284 283 281 280 280 281 283 283 282 281 281 283 285 284 282 280 279 278 278 276 275 273 274 275 276 278 280 282 284 288 294 299 303 304 303 300 295 291 287 282 277 270 264 259 256 255 256 256 257 259 261 262 263 263 262 261 260 260 261 263 265 267 269 271 273 275 276 277 278 279 281 284 287 289 292 293 295
302 300 297 293 291 289 288 288 287 285 284 282 281 281 282 283 283 281 278 277 278 280 281 280 279 280 281 281 280 278 275 273 272 273 276 279 281 285 289 294 299 303 305 305 303 299 295 290 285 280 271 262 255 250 249 250 252 254 256 258 259 259 259 259 258 258 259 261 263 265 268 270 272 274 276 277 277 278 279 281 284 287 289 292 293 295
299 295 292 289 288 288 287 287 287 286 285 284 284 285 285 285 283 280 276 274 274 276 279 281 282 283 284 284 283 281 278 275 273 274 276 279 282 285 290 294 298 301 303 303 302 300 297 294 290 284 276 266 256 248 245 246 248 250 252 254 255 256 256 256 257 258 259 261 263 266 268 271 273 275 276 277 277 277 278 280 283 287 289 292 294 295
289 286 284 285 286 287 287 287 287 287 287 287 288 288 288 286 284 280 276 273 272 274 277 280 282 284 285 286 285 283 281 278 277 277 278 280 282 285 289 292 295 297 299 299 299 298 297 297 295 291 285 275 264 255 249 247 247 248 249 250 251 252 253 254 255 257 259 261 264 266 269 271 273 275 276 276 276 276 277 280 283 287 290 292 295 296
285 281 281 283 285 287 289 289 289 289 289 290 290 290 289 287 284 280 277 274 273 273 275 277 280 282 284 286 286 285 284 283 281 280 280 281 283 286 288 290 292 294 295 295 296 296 296 297 297 296 291 284 275 267 260 255 253 252 251 250 249 249 250 252 254 256 259 261 263 266 269 271 273 274 275 275 275 275 277 280 284 287 291 294 296 298
293 289 287 286 287 289 290 291 291 291 292 292 292 292 291 288 285 281 278 276 274 274 275 276 279 282 285 287 287 287 286 284 283 282 282 282 284 285 287 288 289 292 293 294 295 295 296 297 297 296 293 288 281 275 270 265 261 258 256 254 252 250 250 251 253 255 258 260 262 265 267 269 271 273 273 274 275 276 278 282 286 289 292 295 298 300
300 298 295 292 291 290 290 291 291 292 293 294 294 294 292 290 286 283 280 278 277 277 277 278 280 283 286 287 287 287 285 284 283 282 282 282 282 283 284 286 288 291 293 294 296 297 297 297 297 296 294 291 286 280 275 271 267 263 261 259 257 254 253 253 254 256 258 260 262 264 266 268 270 272 273 275 277 279 281 285 288 291 294 297 300 301
300 299 297 295 293 291 290 290 291 292 294 295 296 296 294 291 288 285 283 282 281 280 280 281 283 285 286 286 286 285 284 283 282 281 280 280 280 281 282 285 288 291 292 294 297 298 298 298 297 297 296 295 293 288 282 276 271 268 265 263 261 258 256 255 256 257 259 262 264 265 267 269 271 273 275 277 280 282 285 287 290 293 296 299 301 303
300 299 298 296 293 291 290 290 291 293 295 296 297 296 295 292 289 287 285 285 284 284 284 284 285 285 285 285 284 284 284 282 281 279 279 278 278 280 283 286 289 291 293 294 295 296 297 297 297 297 298 299 298 296 291 285 279 274 270 266 263 260 258 257 257 258 260 263 265 266 268 270 272 275 278 280 283 285 287 289 292 294 296 299 302 304
300 299 298 295 292 290 289 290 291 293 295 296 296 296 294 292 290 288 287 287 286 287 287 287 287 287 286 285 284 283 282 281 280 278 277 276 277 280 284 287 289 290 290 291 291 292 293 295 296 297 298 299 299 298 296 292 287 281 275 270 266 262 259 258 257 258 260 262 264 266 268 271 273 276 279 281 284 285 287 289 291 294 296 299 302 304
299 298 296 293 290 288 287 289 291 294 295 296 296 295 295 293 292 291 290 290 290 291 291 292 291 290 289 287 285 283 282 281 279 277 275 275 277 280 283 285 285 285 285 286 287 288 290 292 293 295 297 297 297 297 296 294 291 286 281 275 270 266 263 261 260 259 260 262 263 266 268 271 274 277 279 281 283 285 287 288 290 293 296 298 301 304
299 297 295 291 288 286 286 288 291 294 295 295 296 296 296 295 295 294 294 295 295 296 297 296 295 294 292 289 287 285 283 281 279 277 275 275 277 278 280 281 281 281 281 282 283 284 286 288 290 291 292 294 294 294 294 293 291 288 284 280 276 272 269 266 265 264 263 264 265 267 269 272 275 277 280 281 283 284 286 287 290 292 295 298 301 303
299 298 295 290 286 284 285 288 291 293 294 295 295 296 297 298 298 299 299 300 301 301 301 300 298 296 294 292 289 287 284 281 279 278 277 277 277 278 279 280 280 280 280 281 281 282 283 285 286 287 288 289 289 290 290 290 289 288 286 283 280 276 273 271 271 270 268 267 268 269 271 273 276 278 280 281 282 283 284 286 289 291 294 296 299 302
299 298 294 288 284 282 284 287 290 292 293 293 294 296 298 300 301 303 305 305 306 305 304 303 301 298 296 293 291 288 285 282 281 279 279 279 279 279 280 280 281 281 281 281 281 282 282 283 284 284 285 285 285 285 285 286 286 286 285 285 282 279 276 276 275 274 272 271 271 272 273 275 277 279 280 281 282 283 284 286 288 290 293 295 298 301
299 297 292 286 282 281 283 286 289 290 291 292 293 295 298 300 302 305 307 308 308 308 306 303 300 298 295 292 288 286 284 282 281 280 280 280 280 281 282 282 282 283 283 283 282 282 282 282 282 282 282 282 282 282 281 282 282 282 283 284 283 282 281 279 277 276 275 274 275 275 276 277 278 280 281 282 283 283 285 286 288 289 292 294 297 300
299 295 290 284 281 280 282 285 288 289 290 291 292 294 297 299 302 304 306 307 308 306 304 300 296 293 290 289 287 286 285 284 284 283 282 282 282 283 283 283 283 283 282 282 282 282 281 281 280 280 280 279 279 278 278 278 278 279 279 280 281 281 281 279 278 277 277 276 277 277 278 278 279 280 281 282 283 284 285 286 287 289 291 293 297 300
297 294 288 283 280 280 282 286 288 290 290 290 292 294 296 298 300 302 304 305 304 303 300 297 293 291 292 291 290 290 289 289 289 288 287 286 285 284 283 283 282 282 281 281 281 280 280 279 279 278 277 277 276 276 275 275 275 275 276 277 278 278 277 277 278 278 278 277 277 278 278 278 279 279 280 282 282 284 284 285 286 288 290 293 296 299
295 292 288 283 280 280 283 287 290 292 292 292 292 294 295 296 298 299 300 301 301 300 297 295 294 294 296 296 295 294 293 293 292 291 290 289 288 286 285 284 282 281 280 279 279 278 277 277 277 276 276 275 274 274 274 273 273 273 273 274 274 274 275 275 276 276 276 276 276 277 277 278 278 279 280 280 281 282 283 284 285 287 290 293 295 298
292 290 285 281 279 280 283 287 290 292 292 292 293 293 293 294 295 296 297 297 297 297 295 295 295 296 298 299 298 298 297 296 295 294 293 292 290 289 287 285 284 282 280 279 278 276 275 275 275 274 274 274 274 273 272 272 271 271 271 271 271 272 272 273 273 273 274 274 275 276 276 277 277 278 279 279 281 282 282 283 284 286 289 292 294 296
287 283 279 277 277 279 283 286 289 290 290 290 290 291 291 291 292 293 293 294 294 294 294 294 296 298 300 301 301 301 301 301 300 299 297 295 293 291 289 287 285 283 281 279 277 276 274 274 273 273 273 273 273 272 271 271 270 270 269 269 269 269 270 270 270 271 272 273 274 274 275 276 277 277 278 279 280 281 282 283 284 286 288 290 292 294
280 276 274 274 276 279 283 285 287 288 288 288 287 287 288 287 288 289 289 290 291 291 292 293 296 299 301 302 303 303 304 304 304 302 300 298 295 293 290 288 285 282 280 278 276 275 274 273 273 272 272 272 271 271 270 269 269 268 268 268 268 268 268 268 269 270 271 272 273 274 275 276 277 277 278 280 281 281 282 282 283 285 286 288 289 291
275 272 271 273 275 278 280 282 283 284 284 284 284 283 283 282 283 284 285 286 287 288 290 292 296 299 301 303 304 305 306 306 306 305 303 301 299 297 294 290 286 283 279 277 275 274 274 273 273 272 271 270 269 269 269 269 268 268 268 268 268 268 268 268 269 269 271 272 273 274 275 276 277 278 278 279 280 280 281 281 282 284 285 286 286 287
273 270 269 270 272 274 276 277 278 279 279 279 279 278 278 278 279 280 281 282 283 285 287 291 295 299 302 303 304 306 307 308 308 308 306 304 302 301 298 295 290 286 281 278 275 274 273 272 271 271 271 271 270 269 269 269 270 270 270 270 269 268 268 269 269 270 271 273 274 275 276 277 277 278 278 279 280 280 280 280 281 282 282 283 283 284